Voltar ao catálogo

STARLINK-3613

AtivoComunicaçõesVLEO
NORAD 51810·PAYLOAD·🇺🇸 United States

Lançado Feb 25, 2022 de Vandenberg Space Force Base

Loading…

Próximas Passagens (próximas 24 horas)

TLE

AtualizadoSource: CelesTrak SupGP

Época: Sep 14, 2026, 21:36 UTC

1 51810C 22017AU  26257.90048611 -.00014825  00000+0 -43820-3 0  2576
2 51810  53.1599 189.5842 0001330  93.1133 131.2519 15.34384265    17

Acompanhe STARLINK-3613 em tempo real com AllMySat

Download on the App Store